Morrisville, VT

5:11 PM EDT on October 14, 2019 (GMT -0400)
Morrisville Stowe State

Weather History for KMVL - September, 2019

Change the Weather History Date:

Tuesday, September 17, 2019

  Actual Average Record
Temperature  
Mean Temperature 51 °F 57 °F  
Max Temperature 64 °F 70 °F 84 °F (2015)
Min Temperature 37 °F 45 °F 31 °F (2013)
Degree Days  
Heating Degree Days 14 8  
Month to date heating degree days 120 97  
Since 1 July heating degree days 185 192  
Cooling Degree Days 0 0  
Month to date cooling degree days 4 13  
Year to date cooling degree days 247 260  
Growing Degree Days 1 (Base 50)    
Moisture  
Dew Point 43 °F    
Average Humidity 86    
Maximum Humidity 100    
Minimum Humidity 56    
Precipitation  
Precipitation 0.00 in 0.12 in 1.32 in (1999)
Month to date precipitation 2.02 1.77  
Year to date precipitation 29.25 25.53  
Sea Level Pressure  
Sea Level Pressure 30.20 in    
Wind  
Wind Speed 2 mph ()    
Max Wind Speed 13 mph    
Max Gust Speed 18 mph    
Visibility 6.7 miles    
Events Fog    
T = Trace of Precipitation, MM = Missing Value Source: Averaged Metar Reports

Daily Weather History Graph

Daily Weather History Graph

Search for Another Location

Airport or City:

Astronomy

Sep. 17, 2019 Rise Set
Actual Time 6:31 AM EDT 6:57 PM EDT
Civil Twilight 6:02 AM EDT 7:26 PM EDT
Nautical Twilight 5:27 AM EDT 8:01 PM EDT
Astronomical Twilight 4:52 AM EDT 8:36 PM EDT
Moon 8:52 PM EDT (9/17) 9:39 AM EDT (9/17)
Length of Visible Light 13h 24m
Length of Day
12h 26m
Waning Gibbous, 89% of the Moon is Illuminated
Sep 17
Waning Gibbous
Sep 21
Last Quarter
Sep 28
New
Oct 5
First Quarter
Oct 13
Full

Hourly Weather History & Observations

Time (EDT) Temp. Windchill Dew Point Humidity Pressure Visibility Wind Dir Wind Speed Gust Speed Precip Events Conditions
12:54 AM 43.0 °F - 41.0 °F 93% 30.13 in 10.0 mi Calm Calm - N/A   Clear
1:54 AM 41.0 °F 39.0 °F 39.9 °F 96% 30.14 in 10.0 mi South 3.5 mph - N/A   Clear
2:54 AM 42.1 °F - 39.9 °F 92% 30.15 in 10.0 mi Calm Calm - N/A   Clear
3:54 AM 39.9 °F - 37.9 °F 93% 30.15 in 10.0 mi Calm Calm - N/A   Clear
4:13 AM 39.0 °F - 37.9 °F 96% 30.14 in 8.0 mi Calm Calm - N/A   Partly Cloudy
4:31 AM 39.9 °F - 37.9 °F 93% 30.14 in 9.0 mi Calm Calm - N/A   Mostly Cloudy
4:54 AM 39.0 °F - 37.0 °F 93% 30.16 in 3.0 mi Calm Calm - N/A   Overcast
5:02 AM 37.0 °F - 36.0 °F 96% 30.15 in 1.8 mi Calm Calm - N/A   Overcast
5:22 AM 39.0 °F - 37.0 °F 93% 30.15 in 0.8 mi Calm Calm - N/A   Mist
5:54 AM 37.9 °F - 37.0 °F 97% 30.17 in 0.5 mi Calm Calm - N/A Fog Fog
6:54 AM 37.9 °F - 37.0 °F 97% 30.20 in 0.2 mi Calm Calm - N/A Fog Fog
7:54 AM 42.1 °F - 41.0 °F 96% 30.21 in 0.2 mi Calm Calm - N/A Fog Fog
8:28 AM 43.0 °F - 42.1 °F 97% 30.20 in 0.8 mi Calm Calm - N/A   Overcast
8:44 AM 44.1 °F - 43.0 °F 96% 30.20 in 1.2 mi Calm Calm - N/A   Overcast
8:48 AM 44.6 °F - 44.6 °F 100% 30.20 in 3.0 mi Calm Calm - N/A   Overcast
8:54 AM 46.0 °F - 45.0 °F 96% 30.22 in 9.0 mi Calm Calm - N/A   Overcast
9:18 AM 48.0 °F - 46.0 °F 93% 30.21 in 10.0 mi Calm Calm - N/A   Scattered Clouds
9:54 AM 54.0 °F - 46.9 °F 77% 30.22 in 10.0 mi NNE 3.5 mph - N/A   Clear
10:54 AM 61.0 °F - 48.0 °F 62% 30.22 in 10.0 mi NNW 6.9 mph - N/A   Partly Cloudy
11:54 AM 61.0 °F - 48.0 °F 62% 30.21 in 10.0 mi North 9.2 mph - N/A   Overcast
12:54 PM 63.0 °F - 48.0 °F 58% 30.21 in 10.0 mi NNW 10.4 mph - N/A   Overcast
1:54 PM 61.0 °F - 46.9 °F 60% 30.21 in 10.0 mi NNW 9.2 mph - N/A   Overcast
2:54 PM 62.1 °F - 46.9 °F 58% 30.21 in 10.0 mi North 6.9 mph - N/A   Overcast
3:54 PM 62.1 °F - 48.0 °F 60% 30.20 in 10.0 mi NNW 9.2 mph - N/A   Overcast
4:54 PM 61.0 °F - 48.0 °F 62% 30.21 in 10.0 mi North 10.4 mph - N/A   Overcast
5:54 PM 60.1 °F - 48.0 °F 64% 30.22 in 10.0 mi NNW 3.5 mph - N/A   Mostly Cloudy
6:54 PM 57.9 °F - 48.0 °F 70% 30.23 in 10.0 mi North 5.8 mph - N/A   Mostly Cloudy
7:54 PM 53.1 °F - 48.9 °F 86% 30.25 in 10.0 mi Calm Calm - N/A   Overcast
8:54 PM 48.9 °F - 46.0 °F 90% 30.25 in 10.0 mi Calm Calm - N/A   Clear
9:54 PM 46.0 °F - 45.0 °F 96% 30.25 in 10.0 mi Calm Calm - N/A   Clear
10:54 PM 44.1 °F - 42.1 °F 93% 30.27 in 10.0 mi Calm Calm - N/A   Clear
11:36 PM 43.0 °F - 42.1 °F 97% 30.26 in 2.5 mi Calm Calm - N/A   Partly Cloudy
11:43 PM 43.0 °F - 41.0 °F 93% 30.26 in 1.0 mi Calm Calm - N/A   Mist
11:54 PM 42.1 °F - 41.0 °F 96% 30.27 in 1.5 mi Calm Calm - N/A   Scattered Clouds
11:58 PM 42.1 °F - 41.0 °F 96% 30.26 in 3.0 mi Calm Calm - N/A   Mostly Cloudy